When you browse on this site, cookies collect data to enhance your experience and personalize the content and advertising you see.
Visit our Privacy Policy to learn more. By continuing to use the site, you agree to this use of cookies and data.
  • In Portugal
  • List of Countries
  • For 7 days
  • Water Temperature
  • Satellite Maps
  • Weather Map
  • Weather Widgets
  • user-avatar
    Login

    Hourly Weather Koniecwald

    Today, 16 June, Sunday

    Time Temperature Precipitation Wind Pressure Humidity
    00:00 +21°C° 6.1 mm 3 mps 755 mmHg 97%
    01:00 +21°C° 0 mm 3 mps 755 mmHg 96%
    02:00 +20°C° 0.2 mm 3 mps 754 mmHg 96%
    03:00 +20°C° 0.2 mm 4 mps 754 mmHg 96%
    04:00 +20°C° 0.2 mm 4 mps 754 mmHg 96%
    05:00 +20°C° 0 mm 4 mps 755 mmHg 93%
    06:00 +21°C° 0 mm 4 mps 755 mmHg 91%
    07:00 +21°C° 0 mm 4 mps 756 mmHg 88%
    08:00 +21°C° 0 mm 5 mps 756 mmHg 85%
    09:00 +22°C° 0 mm 5 mps 756 mmHg 82%
    10:00 +22°C° 0 mm 5 mps 757 mmHg 79%
    11:00 +22°C° 0 mm 5 mps 757 mmHg 80%
    12:00 +21°C° 0 mm 5 mps 758 mmHg 81%
    13:00 +21°C° 0 mm 5 mps 758 mmHg 82%
    14:00 +21°C° 0 mm 5 mps 758 mmHg 83%
    15:00 +21°C° 0 mm 5 mps 758 mmHg 83%
    16:00 +20°C° 0 mm 5 mps 758 mmHg 83%
    17:00 +20°C° 0 mm 5 mps 758 mmHg 84%
    18:00 +19°C° 0 mm 4 mps 759 mmHg 85%
    19:00 +18°C° 0 mm 4 mps 759 mmHg 86%
    20:00 +18°C° 0 mm 4 mps 759 mmHg 85%
    21:00 +18°C° 0 mm 4 mps 759 mmHg 84%
    22:00 +17°C° 0 mm 4 mps 760 mmHg 82%
    23:00 +15°C° 0 mm 4 mps 760 mmHg 84%

    Tomorrow, 17 June, Monday

    Time Temperature Precipitation Wind Pressure Humidity
    00:00 +14°C° 0 mm 4 mps 760 mmHg 85%
    01:00 +13°C° 0 mm 4 mps 760 mmHg 86%
    02:00 +13°C° 0 mm 4 mps 760 mmHg 87%
    03:00 +13°C° 0 mm 4 mps 760 mmHg 87%
    04:00 +13°C° 0 mm 3 mps 760 mmHg 88%
    05:00 +14°C° 0 mm 4 mps 761 mmHg 86%
    06:00 +17°C° 0 mm 4 mps 761 mmHg 84%
    07:00 +18°C° 0 mm 4 mps 761 mmHg 82%
    08:00 +18°C° 0 mm 4 mps 762 mmHg 82%
    09:00 +19°C° 0 mm 4 mps 762 mmHg 82%
    10:00 +19°C° 0 mm 4 mps 762 mmHg 83%
    11:00 +20°C° 0 mm 4 mps 762 mmHg 77%
    12:00 +21°C° 0 mm 4 mps 762 mmHg 71%
    13:00 +22°C° 0 mm 4 mps 762 mmHg 65%
    14:00 +21°C° 0 mm 4 mps 762 mmHg 67%
    15:00 +21°C° 0 mm 4 mps 762 mmHg 68%
    16:00 +21°C° 0 mm 3 mps 762 mmHg 70%
    17:00 +20°C° 0 mm 3 mps 762 mmHg 74%
    18:00 +19°C° 0 mm 2 mps 762 mmHg 79%
    19:00 +18°C° 0 mm 2 mps 762 mmHg 84%
    20:00 +18°C° 0 mm 1 mps 762 mmHg 86%
    21:00 +15°C° 0 mm 1 mps 762 mmHg 88%
    22:00 +14°C° 0 mm 1 mps 763 mmHg 90%
    23:00 +14°C° 0 mm 1 mps 763 mmHg 89%

    Day after tomorrow, 18 June, Tuesday

    Time Temperature Precipitation Wind Pressure Humidity
    00:00 +14°C° 0 mm 1 mps 762 mmHg 89%
    01:00 +13°C° 0 mm 1 mps 762 mmHg 88%
    02:00 +13°C° 0 mm 1 mps 762 mmHg 88%
    03:00 +13°C° 0 mm 1 mps 762 mmHg 88%
    04:00 +13°C° 0 mm 1 mps 762 mmHg 88%
    05:00 +15°C° 0 mm 1 mps 763 mmHg 85%
    06:00 +18°C° 0 mm 1 mps 763 mmHg 81%
    07:00 +19°C° 0 mm 1 mps 763 mmHg 77%
    08:00 +21°C° 0 mm 1 mps 763 mmHg 74%
    09:00 +22°C° 0 mm 1 mps 763 mmHg 71%
    10:00 +23°C° 0 mm 1 mps 763 mmHg 68%
    11:00 +24°C° 0 mm 1 mps 762 mmHg 66%
    12:00 +25°C° 0 mm 1 mps 762 mmHg 64%
    13:00 +25°C° 0 mm 1 mps 761 mmHg 62%
    14:00 +25°C° 0 mm 2 mps 761 mmHg 63%
    15:00 +25°C° 0 mm 2 mps 761 mmHg 64%
    16:00 +25°C° 0 mm 2 mps 761 mmHg 65%
    17:00 +24°C° 0 mm 2 mps 760 mmHg 70%
    18:00 +23°C° 0 mm 2 mps 760 mmHg 75%
    19:00 +21°C° 0 mm 2 mps 760 mmHg 81%
    20:00 +20°C° 0 mm 2 mps 760 mmHg 83%
    21:00 +19°C° 0 mm 2 mps 760 mmHg 86%
    22:00 +17°C° 0 mm 2 mps 760 mmHg 88%
    23:00 +17°C° 0 mm 2 mps 760 mmHg 87%

    19 June, Wednesday

    Time Temperature Precipitation Wind Pressure Humidity
    00:00 +16°C° 0 mm 2 mps 760 mmHg 87%
    01:00 +16°C° 0 mm 2 mps 759 mmHg 86%
    02:00 +16°C° 0 mm 2 mps 759 mmHg 87%
    03:00 +15°C° 0 mm 2 mps 759 mmHg 87%
    04:00 +15°C° 0 mm 2 mps 759 mmHg 88%
    05:00 +17°C° 0 mm 2 mps 758 mmHg 86%
    06:00 +19°C° 0 mm 3 mps 758 mmHg 83%
    07:00 +21°C° 0 mm 3 mps 758 mmHg 81%
    08:00 +22°C° 0 mm 4 mps 758 mmHg 78%
    09:00 +23°C° 0 mm 4 mps 758 mmHg 74%
    10:00 +26°C° 0 mm 4 mps 757 mmHg 71%
    11:00 +26°C° 0.1 mm 4 mps 757 mmHg 70%
    12:00 +27°C° 0.1 mm 4 mps 756 mmHg 69%
    13:00 +27°C° 0.1 mm 4 mps 756 mmHg 69%
    14:00 +27°C° 0.9 mm 4 mps 755 mmHg 72%
    15:00 +26°C° 0.9 mm 3 mps 755 mmHg 76%
    16:00 +26°C° 0.9 mm 3 mps 755 mmHg 79%
    17:00 +25°C° 2.7 mm 3 mps 754 mmHg 82%
    18:00 +24°C° 2.7 mm 2 mps 754 mmHg 86%
    19:00 +23°C° 2.7 mm 2 mps 753 mmHg 89%
    20:00 +23°C° 0.3 mm 2 mps 753 mmHg 90%
    21:00 +21°C° 0.3 mm 2 mps 753 mmHg 91%
    22:00 +20°C° 0.3 mm 2 mps 753 mmHg 92%
    23:00 +20°C° 0 mm 2 mps 753 mmHg 92%

    20 June, Thursday

    Time Temperature Precipitation Wind Pressure Humidity
    00:00 +20°C° 0 mm 1 mps 753 mmHg 93%
    01:00 +20°C° 0 mm 1 mps 753 mmHg 94%
    02:00 +20°C° 0 mm 1 mps 753 mmHg 94%
    03:00 +19°C° 0 mm 2 mps 753 mmHg 94%
    04:00 +19°C° 0 mm 2 mps 753 mmHg 95%
    05:00 +20°C° 0 mm 2 mps 753 mmHg 92%
    06:00 +21°C° 0 mm 2 mps 753 mmHg 89%
    07:00 +24°C° 0 mm 2 mps 753 mmHg 87%
    08:00 +25°C° 0 mm 2 mps 753 mmHg 81%
    09:00 +26°C° 0 mm 2 mps 754 mmHg 76%
    10:00 +27°C° 0 mm 2 mps 754 mmHg 70%
    11:00 +28°C° 0 mm 2 mps 754 mmHg 67%
    12:00 +29°C° 0 mm 2 mps 754 mmHg 63%
    13:00 +30°C° 0 mm 1 mps 754 mmHg 60%
    14:00 +30°C° 0.2 mm 2 mps 754 mmHg 63%
    15:00 +29°C° 0.2 mm 2 mps 754 mmHg 67%
    16:00 +29°C° 0.2 mm 2 mps 754 mmHg 70%
    17:00 +28°C° 0.3 mm 2 mps 754 mmHg 74%
    18:00 +27°C° 0.3 mm 2 mps 754 mmHg 77%
    19:00 +26°C° 0.3 mm 2 mps 754 mmHg 81%
    20:00 +24°C° 0.5 mm 2 mps 754 mmHg 85%
    21:00 +21°C° 0.5 mm 3 mps 754 mmHg 88%
    22:00 +20°C° 0.5 mm 3 mps 755 mmHg 92%
    23:00 +19°C° 0.4 mm 3 mps 755 mmHg 93%

    21 June, Friday

    Time Temperature Precipitation Wind Pressure Humidity
    00:00 +18°C° 0.4 mm 3 mps 755 mmHg 94%
    01:00 +17°C° 0.4 mm 3 mps 755 mmHg 95%
    02:00 +17°C° 0.1 mm 3 mps 755 mmHg 96%
    03:00 +17°C° 0.1 mm 2 mps 755 mmHg 96%
    04:00 +16°C° 0.1 mm 2 mps 755 mmHg 96%
    05:00 +17°C° 0.1 mm 3 mps 755 mmHg 93%
    06:00 +18°C° 0.1 mm 3 mps 756 mmHg 90%
    07:00 +19°C° 0.1 mm 4 mps 756 mmHg 88%
    08:00 +20°C° 0.2 mm 4 mps 756 mmHg 86%
    09:00 +20°C° 0.2 mm 4 mps 756 mmHg 83%
    10:00 +21°C° 0.2 mm 5 mps 756 mmHg 81%
    11:00 +21°C° 0.1 mm 5 mps 756 mmHg 80%
    12:00 +21°C° 0.1 mm 5 mps 756 mmHg 78%
    13:00 +22°C° 0.1 mm 5 mps 756 mmHg 77%
    14:00 +21°C° 0 mm 5 mps 756 mmHg 78%
    15:00 +20°C° 0 mm 5 mps 756 mmHg 78%
    16:00 +20°C° 0 mm 5 mps 756 mmHg 79%
    17:00 +19°C° 0 mm 5 mps 757 mmHg 80%
    18:00 +17°C° 0 mm 5 mps 757 mmHg 82%
    19:00 +15°C° 0 mm 4 mps 757 mmHg 84%
    20:00 +15°C° 0 mm 4 mps 757 mmHg 85%
    21:00 +14°C° 0 mm 3 mps 758 mmHg 86%
    22:00 +13°C° 0 mm 3 mps 758 mmHg 88%
    23:00 +14°C° 0 mm 2 mps 758 mmHg 89%
    Show more